Simultaneous Nadir Overpasses (SNOs) Predictions

Prediction of SNOs between NOAA-19 and NPP Satellite Orbit:

Table of predicted SNOs for the next 14.0 days since TLE Epoch: 1/10/2014
Index Date (NOAA-19) Time (NOAA-19) Lat,Lon (NOAA-19) SZA (NOAA-19 ) Date (NPP) Time (NPP) Lat,Lon (NPP) SZA (NPP ) Distance(km) Time Diff (sec)
1 01/13/2014 20:04:05 80.99,-175.02 106.17 01/13/2014 20:05:12 80.99,-174.87 106.11 2.64 67
2 01/13/2014 20:55:01 -80.98, -7.50 73.88 01/13/2014 20:55:56 -80.98, -7.34 73.93 2.83 55
3 01/13/2014 21:46:07 80.97, 160.23 106.05 01/13/2014 21:46:41 80.97, 160.11 106.05 2.05 34
4 01/13/2014 22:37:03 -80.96, -32.26 74.00 01/13/2014 22:37:25 -80.96, -32.36 74.00 1.83 22
5 01/13/2014 23:28:10 80.96, 135.10 105.98 01/13/2014 23:28:10 80.96, 135.09 105.98 0.19 0
6 01/14/2014
